DateTimeUTC,F1_A11,F1_S11,BsB_S11,BsG_S11,BsR_S11,BbsB_S11,BbsG_S11,BbsR_S11,BaB_A11,BaG_A11,BaR_A11,Tu_S11,T_S11,Uu_S11,U_S11,P_S11,T1_A11
2021-09-14T17:00:00Z,00000200,20000000,,,,,,,-000.07,-000.05,0000.05,19.0,26.0,03.2,02.1,0657.0,31.1
2021-09-14T17:01:00Z,00000200,20000000,,,,,,,0000.06,-000.28,0000.13,19.0,26.0,03.2,02.1,0657.0,31.1
2021-09-14T17:02:00Z,00000200,20000000,,,,,,,0000.11,-000.14,-000.07,19.0,26.0,03.2,02.1,0657.0,31.1
2021-09-14T17:03:00Z,00000200,60000000,,,,,,,-000.12,0000.53,-000.03,19.0,26.0,03.2,02.1,0657.0,31.1
2021-09-14T17:04:00Z,00000200,40000000,0000.97,0001.11,0000.73,0000.02,0000.29,0000.04,0000.67,-000.31,0000.54,19.1,25.8,03.2,02.1,0657.9,31.1
2021-09-14T17:05:00Z,00000200,00000000,0001.38,0000.66,0000.63,0001.01,0000.15,-000.18,0000.17,0000.63,0000.49,19.2,25.8,03.2,02.1,0657.9,31.1
2021-09-14T17:06:00Z,00000200,00000000,0001.43,0000.97,0000.43,0000.35,0000.43,0000.10,0000.22,0000.71,-000.40,19.2,25.7,03.2,02.1,0658.0,31.1
2021-09-14T17:07:00Z,00000200,00000000,0001.55,0001.05,0000.65,0000.18,0000.26,0000.19,0000.14,-000.12,0000.29,19.2,25.7,03.2,02.2,0657.9,31.1
2021-09-14T17:08:00Z,00000200,00000000,0002.09,0001.27,0000.68,0000.08,0000.44,-000.21,0000.42,0000.24,0000.41,19.2,25.7,03.2,02.1,0657.9,31.1
2021-09-14T17:09:00Z,00000200,00000000,0001.82,0000.99,0000.46,0000.47,0000.34,-000.24,0000.07,0000.01,0000.13,19.2,25.7,03.3,02.2,0657.9,31.1
2021-09-14T17:10:00Z,00000200,00000000,0001.52,0001.35,0000.64,0000.60,0000.24,0000.15,0000.15,0000.36,0000.24,19.2,25.7,03.1,02.1,0658.0,31.1
2021-09-14T17:11:00Z,00000200,00000000,0001.40,0001.33,0000.72,0000.00,0000.37,0000.25,0000.29,0000.29,0000.30,19.1,25.7,03.2,02.1,0658.0,31.1
2021-09-14T17:12:00Z,00000200,00000000,0001.00,0001.12,0000.62,-000.26,0000.39,0000.15,0000.02,-000.18,-000.04,19.1,25.7,03.1,02.1,0657.9,31.1
2021-09-14T17:13:00Z,00000200,00000000,0001.21,0000.92,0000.64,0000.09,0000.30,0000.40,0000.20,0000.09,0000.13,19.1,25.6,03.1,02.1,0657.8,31.1
2021-09-14T17:14:00Z,00000200,00000000,0002.37,0000.70,0000.76,0000.30,0000.20,0000.09,0000.40,0000.72,0000.01,19.1,25.6,03.2,02.2,0657.8,31.1
2021-09-14T17:15:00Z,00000200,00000000,0000.84,0001.31,0000.65,0000.33,0000.47,-000.22,0000.51,0000.31,0000.53,19.1,25.6,03.1,02.1,0657.9,31.1
2021-09-14T17:16:00Z,00000200,00000000,0001.31,0000.58,0000.57,0000.26,0000.11,-000.13,0000.16,0000.04,-000.00,19.1,25.6,03.1,02.1,0658.0,31.1
2021-09-14T17:17:00Z,00000200,00000000,0002.04,0001.05,0000.63,0000.33,0000.15,0000.14,0000.09,-000.01,0000.53,19.1,25.6,03.2,02.1,0657.9,31.1
2021-09-14T17:18:00Z,00000200,00000000,0001.12,0001.34,0000.79,0000.50,0000.23,0000.38,0000.31,0000.52,0000.28,19.1,25.6,03.0,02.0,0657.9,31.1
2021-09-14T17:19:00Z,00000200,00000000,0001.11,0001.29,0000.74,0000.90,0000.42,0000.22,0000.47,0000.03,-000.27,19.1,25.6,03.1,02.1,0657.9,31.1
2021-09-14T17:20:00Z,00000200,00000000,0002.30,0001.20,0000.62,-000.18,-000.05,-000.25,-000.02,0000.17,0000.26,19.1,25.6,03.1,02.1,0657.9,31.1
2021-09-14T17:21:00Z,00000200,00000000,0001.86,0000.95,0000.75,0000.58,0000.29,-000.12,-000.13,0000.17,0000.12,19.1,25.6,03.0,02.0,0657.9,31.1
2021-09-14T17:22:00Z,00000200,00000000,0001.55,0001.35,0000.95,-000.11,0000.46,0000.32,0000.61,-000.12,0000.10,19.1,25.6,03.0,02.0,0657.9,31.1
2021-09-14T17:23:00Z,00000200,00000000,0001.47,0000.81,0000.30,0001.15,0000.19,0000.09,-000.13,0000.48,0000.29,19.1,25.6,03.1,02.1,0658.0,31.1
2021-09-14T17:24:00Z,00000200,00000000,0001.49,0001.05,0000.14,0000.15,0000.01,-000.20,0000.08,0000.38,0000.56,19.1,25.6,03.0,02.0,0658.0,31.1
2021-09-14T17:25:00Z,00000200,00000000,0000.95,0001.14,0000.55,-000.08,0000.31,0000.02,0000.39,0000.26,-000.24,19.1,25.6,02.9,02.0,0657.9,31.1
2021-09-14T17:26:00Z,00000200,00000000,0000.14,0001.24,0000.90,0000.66,0000.27,0000.10,0000.15,0000.32,0000.54,19.1,25.6,02.9,02.0,0658.0,31.1
2021-09-14T17:27:00Z,00000200,00000000,0001.43,0000.91,0000.53,0000.05,0000.04,-000.08,0000.23,-000.28,-000.32,19.1,25.6,02.9,01.9,0657.9,31.1
2021-09-14T17:28:00Z,00000200,00000000,0001.43,0000.83,0000.65,-000.53,0000.49,-000.17,0000.09,0000.64,0000.49,19.1,25.6,02.9,02.0,0658.0,31.1
2021-09-14T17:29:00Z,00000200,00000000,0000.88,0001.55,0000.80,0000.27,0000.16,0000.17,-000.09,0000.02,0000.18,19.1,25.5,03.0,02.0,0658.0,31.1
2021-09-14T17:30:00Z,00000200,00000000,0000.24,0001.18,0000.43,0000.08,0000.21,0000.04,0000.38,0000.02,0000.15,19.1,25.6,02.8,01.9,0658.0,31.1
2021-09-14T17:31:00Z,00000200,00000000,0001.22,0000.92,0000.74,0000.46,0000.07,0000.28,-000.01,-000.02,-000.03,19.1,25.5,02.8,01.9,0658.0,31.1
2021-09-14T17:32:00Z,00000200,00000000,0001.58,0001.02,0000.49,0000.60,0000.20,-000.21,0000.42,0000.49,0000.49,19.1,25.5,02.8,01.9,0658.0,31.1
2021-09-14T17:33:00Z,00000200,00000000,0001.54,0001.01,0000.48,0000.20,0000.05,0000.13,0000.33,0000.33,-000.29,19.1,25.5,02.8,01.9,0658.0,31.1
2021-09-14T17:34:00Z,00000200,00000000,0000.93,0000.94,0000.53,0000.05,0000.71,0000.12,0000.11,0000.02,0000.53,19.1,25.5,02.8,01.9,0658.0,31.1
2021-09-14T17:35:00Z,00000200,00000000,0001.84,0000.80,0000.77,-000.35,0000.46,0000.24,0000.49,0000.33,-000.03,19.1,25.5,02.8,01.9,0658.1,31.1
2021-09-14T17:36:00Z,00000200,00000000,0000.91,0001.05,0000.66,0000.35,0000.28,-000.10,0000.03,-000.04,0000.58,19.1,25.5,02.7,01.8,0658.1,31.1
2021-09-14T17:37:00Z,00000200,00000000,0001.57,0000.71,0000.72,-000.24,0000.07,-000.12,0000.27,0000.31,0000.07,19.1,25.5,02.7,01.8,0658.0,31.1
2021-09-14T17:38:00Z,00000200,00000000,0001.22,0000.59,0000.79,0000.16,0000.19,0000.18,0000.33,0000.62,0000.00,19.1,25.5,02.7,01.8,0658.1,31.1
2021-09-14T17:39:00Z,00000200,00000000,0001.17,0000.91,0000.61,-000.01,0000.25,-000.21,0000.36,-000.26,0000.06,19.0,25.5,02.7,01.8,0658.0,31.1
2021-09-14T17:40:00Z,00000200,00000000,0001.16,0001.15,0000.05,0000.06,0000.37,-000.15,0000.23,0000.68,0000.54,19.0,25.5,02.7,01.8,0658.1,31.1
2021-09-14T17:41:00Z,00000200,00000000,0000.51,0001.42,0001.02,0000.16,0000.34,0000.27,-000.03,-000.10,0000.12,19.0,25.5,02.6,01.8,0658.0,31.1
2021-09-14T17:42:00Z,00000200,00000000,0001.16,0000.96,0000.49,-000.20,-000.01,0000.25,0000.39,0000.06,0000.29,19.0,25.5,02.7,01.8,0658.0,31.1
2021-09-14T17:43:00Z,00000200,00000000,0000.89,0001.25,0000.55,0000.77,0000.59,-000.03,0000.14,0000.34,0000.11,19.0,25.5,02.7,01.8,0658.0,31.1
2021-09-14T17:44:00Z,00000200,00000000,0001.50,0000.83,0000.62,0000.60,0000.12,0000.10,-000.07,0000.35,0000.06,19.0,25.5,02.6,01.8,0658.0,31.1
2021-09-14T17:45:00Z,00000200,00000000,0000.39,0001.00,0000.52,0000.37,0000.08,0000.05,0000.45,0000.25,0000.12,19.0,25.5,02.6,01.7,0658.0,31.1
2021-09-14T17:46:00Z,00000200,00000000,0000.64,0001.06,0000.82,-000.03,0000.63,-000.00,0000.29,-000.02,0000.40,19.0,25.5,02.7,01.8,0658.0,31.1
2021-09-14T17:47:00Z,00000200,00000000,0001.10,0000.98,0000.33,0000.41,-000.11,-000.01,0000.09,0000.37,0000.25,19.0,25.5,02.7,01.8,0657.9,31.1
2021-09-14T17:48:00Z,00000200,00000000,0001.64,0000.87,0000.58,0000.17,0000.16,0000.35,0000.33,0000.10,0000.02,19.0,25.5,02.7,01.8,0657.9,31.1
2021-09-14T17:49:00Z,00000200,00000000,0001.77,0000.85,0001.15,0000.26,0000.44,0000.16,0000.12,0000.24,0000.44,19.0,25.5,02.6,01.8,0657.9,31.1
2021-09-14T17:50:00Z,00000200,00000000,0001.27,0001.05,0000.24,0000.14,0000.22,-000.05,0000.56,0000.42,0000.29,19.0,25.5,02.7,01.8,0657.9,31.1
2021-09-14T17:51:00Z,00000200,00000000,0000.84,0000.86,0000.48,0000.51,0000.03,0000.02,-000.34,0000.22,-000.13,19.0,25.5,02.7,01.9,0657.9,31.1
2021-09-14T17:52:00Z,00000200,00000000,0000.70,0001.12,0000.90,0000.32,0000.19,-000.17,0000.66,0000.23,0000.66,19.0,25.5,02.6,01.8,0657.9,31.1
2021-09-14T17:53:00Z,00000200,00000000,0000.87,0001.11,0000.86,0000.77,0000.33,-000.34,0000.42,0000.44,-000.21,19.0,25.5,02.6,01.8,0657.8,31.1
2021-09-14T17:54:00Z,00000200,00000000,0001.45,0001.02,0000.68,0000.67,0000.10,-000.13,0000.27,0000.56,0000.72,19.0,25.5,02.6,01.8,0657.8,31.1
2021-09-14T17:55:00Z,00000200,00000000,0001.53,0000.99,0001.13,0000.74,-000.17,-000.01,0000.03,-000.05,-000.00,19.0,25.5,02.6,01.8,0657.9,31.1
2021-09-14T17:56:00Z,00000200,00000000,0001.30,0000.86,0000.57,0001.12,-000.04,-000.01,0000.31,-000.05,0000.36,19.0,25.5,02.7,01.8,0657.8,31.1
2021-09-14T17:57:00Z,00000200,40000000,,,,,,,0000.56,0000.37,0000.38,19.1,25.5,02.8,01.9,0658.0,31.1
2021-09-14T17:58:00Z,00000200,60000000,,,,,,,0000.02,-000.21,-000.55,18.8,25.6,02.6,01.7,0657.0,31.1
2021-09-14T17:59:00Z,00000200,20000000,,,,,,,-000.49,-000.34,-000.23,18.7,25.7,02.6,01.7,0656.9,31.1
